Track STARLINK-1146 now! 10-day predictions STARLINK-1146 is classified as:
1 45094U 20006BC 22146.80134224 .00002734 00000-0 20234-3 0 9999 2 45094 53.0549 334.6464 0001389 70.7295 289.3844 15.06402618128597